Погода в Фусини

Китай     42°02′02″N   121°41′00″E
темп.,
°C
ветер,
м/с
пор.,
м/с
влажн.,
%
обл.,
%
осадки,
мм/ч
давл.,
гПа
погр.,
м
3 марта, ср
ср323:00−4ююз4158573 0.0 1022460
02:00−3ююз4158587 0.0 1019598
05:00−3ююз5158464 0.0 1018527
08:00−1ююз4148264 0.0 1017596
11:00+4юз6106679 0.0 1016740
14:00+8ююз6115440 0.0 10131102
17:00+4ю37740 0.0 1013189
20:00+1ю312830 0.0 1014336
4 марта, чт
чт423:00+1ююз312790 0.0 1015359
02:00+1ю311840 0.0 1014348
05:000ююз313880 0.0 1013375
08:00+2ююз414810 0.0 1014463
11:00+7ююз510610 0.0 1014659
14:00+9ююз510530 0.0 1013718
17:00+7ю35610 0.0 1013244
20:00+3юз22790 0.0 101538
5 марта, пт
пт523:00+2зсз128865 0.0 101830
02:000ссв6136377 0.0 1022704
05:00−4ссв81575100 0.0 1027813
08:00−4ссв81529100 0.4 1032969
11:00−4ссв71135100 0.8 10351004
14:00−4ссв71129100 0.8 10351222
17:00−5ссв6102993 0.0 10371171
20:00−7св5103696 0.0 10391057
6 марта, сб
сб623:00−9св49540 0.0 1041697
02:00−11св38600 0.0 1042481
05:00−12ссв37590 0.0 1041418
08:00−11ссв36450 0.0 1042437
11:00−7ссв35270 0.0 1040760
14:00−3св34210 0.0 1037821
17:00−3св23230 0.0 1035620
20:00−5вюв11300 0.0 1035134
7 марта, вс
вс723:00−6юв11330 0.0 103436
02:00−7ю11330 0.0 103229
05:00−7юз22340 0.0 103067
08:00−6юз24310 0.0 1030193
11:00−1юз24240 0.0 1029302
14:00+4юз22220 0.0 1027362
17:00+3ююз23270 0.0 102771
20:000з11320 0.0 102922